| time (UTC) | temp F | wind direction | speed MPH | gust MPH | rain 1hr in | rain 24hr in | rain mn in | humidity % | barometer mb |
| 20260510215504 | 66 | 90 | 1.0 | 9.0 | 0.00 | 0.00 | 0.00 | 63 | 1018.5 |
| 20260510215004 | 66 | 35 | 2.0 | 6.0 | 0.00 | 0.00 | 0.00 | 63 | 1018.5 |
| 20260510214504 | 65 | 116 | 0.0 | 5.0 | 0.00 | 0.00 | 0.00 | 64 | 1018.5 |
| 20260510214004 | 64 | 79 | 0.0 | 5.0 | 0.00 | 0.00 | 0.00 | 64 | 1018.5 |
| 20260510213504 | 64 | 286 | 0.0 | 5.0 | 0.00 | 0.00 | 0.00 | 66 | 1018.5 |
| 20260510213003 | 63 | 85 | 0.0 | 5.0 | 0.00 | 0.00 | 0.00 | 65 | 1018.5 |
| 20260510212004 | 64 | 57 | 0.0 | 2.0 | 0.00 | 0.00 | 0.00 | 64 | 1018.5 |
| 20260510211504 | 64 | 197 | 0.0 | 5.0 | 0.00 | 0.00 | 0.00 | 64 | 1018.5 |
| 20260510211004 | 65 | 20 | 0.0 | 5.0 | 0.00 | 0.00 | 0.00 | 63 | 1018.5 |
| 20260510210504 | 65 | 54 | 0.0 | 5.0 | 0.00 | 0.00 | 0.00 | 66 | 1018.5 |
| 20260510210004 | 64 | 130 | 0.0 | 2.0 | 0.00 | 0.00 | 0.00 | 66 | 1017.5 |
| 20260510205504 | 63 | 202 | 0.0 | 0.0 | 0.00 | 0.00 | 0.00 | 66 | 1017.5 |
| 20260510205004 | 63 | 350 | 0.0 | 5.0 | 0.00 | 0.00 | 0.00 | 66 | 1017.5 |
| 20260510204503 | 63 | 305 | 1.0 | 6.0 | 0.00 | 0.00 | 0.00 | 67 | 1018.5 |
| 20260510203504 | 63 | 305 | 3.0 | 8.0 | 0.00 | 0.00 | 0.00 | 67 | 1018.5 |
| 20260510203003 | 63 | 305 | 0.0 | 2.0 | 0.00 | 0.00 | 0.00 | 66 | 1018.5 |
| 20260510202004 | 63 | 238 | 2.0 | 7.0 | 0.00 | 0.00 | 0.00 | 66 | 1018.5 |
| 20260510201504 | 64 | 62 | 1.0 | 7.0 | 0.00 | 0.00 | 0.00 | 66 | 1018.5 |
| 20260510201005 | 64 | 283 | 1.0 | 7.0 | 0.00 | 0.00 | 0.00 | 67 | 1018.5 |
| 20260510200504 | 63 | 243 | 0.0 | 2.0 | 0.00 | 0.00 | 0.00 | 69 | 1018.5 |
| 20260510200004 | 63 | 231 | 0.0 | 5.0 | 0.00 | 0.00 | 0.00 | 69 | 1018.5 |
| 20260510195504 | 62 | 61 | 0.0 | 5.0 | 0.00 | 0.00 | 0.00 | 70 | 1018.5 |
| 20260510194503 | 61 | 176 | 0.0 | 2.0 | 0.00 | 0.00 | 0.00 | 71 | 1018.5 |
| 20260510194005 | 61 | 69 | 0.0 | 0.0 | 0.00 | 0.00 | 0.00 | 71 | 1018.5 |
| 20260510193504 | 61 | 170 | 0.0 | 3.0 | 0.00 | 0.00 | 0.00 | 72 | 1018.5 |
| 20260510193006 | 60 | 91 | 0.0 | 5.0 | 0.00 | 0.00 | 0.00 | 71 | 1018.5 |
| 20260510192508 | 60 | 123 | 0.0 | 5.0 | 0.00 | 0.00 | 0.00 | 71 | 1018.5 |
| 20260510192007 | 60 | 147 | 0.0 | 0.0 | 0.00 | 0.00 | 0.00 | 72 | 1018.5 |
| 20260510191507 | 60 | 260 | 0.0 | 0.0 | 0.00 | 0.00 | 0.00 | 73 | 1018.5 |
| 20260510191006 | 60 | 282 | 0.0 | 0.0 | 0.00 | 0.00 | 0.00 | 73 | 1018.5 |
| 20260510190006 | 60 | 215 | 0.0 | 3.0 | 0.00 | 0.00 | 0.00 | 73 | 1018.5 |
| 20260510185506 | 60 | 166 | 0.0 | 0.0 | 0.00 | 0.00 | 0.00 | 73 | 1018.5 |
| 20260510185007 | 60 | 108 | 0.0 | 2.0 | 0.00 | 0.00 | 0.00 | 73 | 1018.5 |
| 20260510184506 | 60 | 202 | 0.0 | 2.0 | 0.00 | 0.00 | 0.00 | 73 | 1018.5 |
| 20260510184006 | 60 | 155 | 0.0 | 6.0 | 0.00 | 0.00 | 0.00 | 74 | 1018.5 |
| 20260510182506 | 59 | 152 | 1.0 | 6.0 | 0.00 | 0.00 | 0.00 | 74 | 1018.5 |
| 20260510182007 | 59 | 199 | 0.0 | 3.0 | 0.00 | 0.00 | 0.00 | 75 | 1018.5 |
| 20260510181507 | 59 | 178 | 0.0 | 7.0 | 0.00 | 0.00 | 0.00 | 75 | 1018.5 |
| 20260510181006 | 58 | 198 | 3.0 | 7.0 | 0.00 | 0.00 | 0.00 | 74 | 1018.5 |
| 20260510175507 | 58 | 238 | 0.0 | 5.0 | 0.00 | 0.00 | 0.00 | 74 | 1018.5 |
| 20260510175006 | 58 | 215 | 0.0 | 3.0 | 0.00 | 0.00 | 0.00 | 74 | 1018.5 |
| 20260510174506 | 58 | 141 | 0.0 | 7.0 | 0.00 | 0.00 | 0.00 | 74 | 1017.5 |
| 20260510174006 | 58 | 137 | 2.0 | 7.0 | 0.00 | 0.00 | 0.00 | 74 | 1017.5 |
| 20260510173506 | 58 | 260 | 0.0 | 0.0 | 0.00 | 0.00 | 0.00 | 74 | 1017.5 |
| 20260510173007 | 57 | 121 | 0.0 | 0.0 | 0.00 | 0.00 | 0.00 | 74 | 1017.5 |
| 20260510172507 | 57 | 56 | 0.0 | 0.0 | 0.00 | 0.00 | 0.00 | 74 | 1017.5 |
| 20260510171506 | 57 | 63 | 0.0 | 0.0 | 0.00 | 0.00 | 0.00 | 74 | 1017.5 |
| 20260510171006 | 57 | 311 | 0.0 | 0.0 | 0.00 | 0.00 | 0.00 | 74 | 1017.5 |
| 20260510170506 | 57 | 141 | 0.0 | 0.0 | 0.00 | 0.00 | 0.00 | 75 | 1017.5 |
| 20260510170007 | 57 | 200 | 0.0 | 0.0 | 0.00 | 0.00 | 0.00 | 75 | 1017.5 |
| 20260510165506 | 57 | 253 | 0.0 | 0.0 | 0.00 | 0.00 | 0.00 | 75 | 1017.5 |
| 20260510165006 | 57 | 145 | 0.0 | 0.0 | 0.00 | 0.00 | 0.00 | 75 | 1017.5 |
| 20260510164507 | 57 | 305 | 0.0 | 5.0 | 0.00 | 0.00 | 0.00 | 75 | 1017.5 |
| 20260510164006 | 57 | 171 | 0.0 | 5.0 | 0.00 | 0.00 | 0.00 | 76 | 1017.5 |
| 20260510163506 | 57 | 199 | 0.0 | 2.0 | 0.00 | 0.00 | 0.00 | 76 | 1017.5 |
| 20260510162506 | 57 | 117 | 1.0 | 6.0 | 0.00 | 0.00 | 0.00 | 77 | 1017.5 |
| 20260510162006 | 56 | 332 | 0.0 | 5.0 | 0.00 | 0.00 | 0.00 | 78 | 1017.5 |
| 20260510161506 | 56 | 80 | 0.0 | 5.0 | 0.00 | 0.00 | 0.00 | 79 | 1017.5 |
| 20260510161007 | 56 | 170 | 0.0 | 3.0 | 0.00 | 0.00 | 0.00 | 78 | 1017.5 |
| 20260510160506 | 55 | 51 | 0.0 | 3.0 | 0.00 | 0.00 | 0.00 | 80 | 1017.5 |
| 20260510160007 | 55 | 294 | 0.0 | 0.0 | 0.00 | 0.00 | 0.00 | 80 | 1017.5 |
| 20260510155506 | 55 | 137 | 0.0 | 0.0 | 0.00 | 0.00 | 0.00 | 80 | 1017.5 |
| 20260510155007 | 54 | 192 | 0.0 | 0.0 | 0.00 | 0.00 | 0.00 | 80 | 1017.5 |
| 20260510154506 | 54 | 116 | 0.0 | 0.0 | 0.00 | 0.00 | 0.00 | 80 | 1016.5 |
| 20260510154006 | 54 | 162 | 0.0 | 0.0 | 0.00 | 0.00 | 0.00 | 80 | 1016.5 |
| 20260510153506 | 54 | 54 | 0.0 | 0.0 | 0.00 | 0.00 | 0.00 | 80 | 1016.5 |
| 20260510152506 | 54 | 192 | 0.0 | 0.0 | 0.00 | 0.00 | 0.00 | 81 | 1016.5 |
| 20260510152006 | 54 | 84 | 0.0 | 0.0 | 0.00 | 0.00 | 0.00 | 81 | 1016.5 |
| 20260510151006 | 53 | 36 | 0.0 | 0.0 | 0.00 | 0.00 | 0.00 | 81 | 1016.5 |
| 20260510150006 | 53 | 144 | 0.0 | 0.0 | 0.00 | 0.00 | 0.00 | 82 | 1016.5 |
| 20260510145006 | 53 | 114 | 0.0 | 0.0 | 0.00 | 0.00 | 0.00 | 82 | 1016.5 |
| 20260510144506 | 53 | 305 | 0.0 | 0.0 | 0.00 | 0.00 | 0.00 | 82 | 1016.5 |
| 20260510144007 | 53 | 213 | 0.0 | 0.0 | 0.00 | 0.00 | 0.00 | 82 | 1016.5 |
| 20260510143505 | 53 | 42 | 0.0 | 0.0 | 0.00 | 0.00 | 0.00 | 82 | 1016.5 |
| 20260510142506 | 52 | 47 | 0.0 | 0.0 | 0.00 | 0.00 | 0.00 | 82 | 1015.5 |
| 20260510142006 | 52 | 125 | 0.0 | 0.0 | 0.00 | 0.00 | 0.00 | 82 | 1015.5 |
| 20260510141506 | 52 | 80 | 0.0 | 0.0 | 0.00 | 0.00 | 0.00 | 82 | 1016.5 |
| 20260510135506 | 52 | 125 | 0.0 | 0.0 | 0.00 | 0.00 | 0.00 | 82 | 1016.5 |
| 20260510135006 | 52 | 238 | 0.0 | 0.0 | 0.00 | 0.00 | 0.00 | 82 | 1016.5 |
| 20260510134506 | 52 | 238 | 0.0 | 0.0 | 0.00 | 0.00 | 0.00 | 83 | 1016.5 |
| 20260510134005 | 52 | 238 | 0.0 | 0.0 | 0.00 | 0.00 | 0.00 | 82 | 1016.5 |
| 20260510133006 | 52 | 238 | 0.0 | 0.0 | 0.00 | 0.00 | 0.00 | 82 | 1016.5 |
| 20260510132005 | 52 | 238 | 0.0 | 0.0 | 0.00 | 0.00 | 0.00 | 82 | 1016.5 |
| 20260510131506 | 52 | 238 | 0.0 | 0.0 | 0.00 | 0.00 | 0.00 | 82 | 1017.5 |
| 20260510131006 | 52 | 238 | 0.0 | 0.0 | 0.00 | 0.00 | 0.00 | 82 | 1017.5 |
| 20260510130007 | 52 | 238 | 0.0 | 0.0 | 0.00 | 0.00 | 0.00 | 81 | 1016.5 |
| 20260510125006 | 52 | 238 | 0.0 | 0.0 | 0.00 | 0.00 | 0.00 | 81 | 1016.5 |
| 20260510124506 | 52 | 193 | 0.0 | 0.0 | 0.00 | 0.00 | 0.00 | 81 | 1016.5 |
| 20260510124006 | 52 | 102 | 0.0 | 0.0 | 0.00 | 0.00 | 0.00 | 81 | 1016.5 |
| 20260510123506 | 52 | 102 | 0.0 | 0.0 | 0.00 | 0.00 | 0.00 | 81 | 1016.5 |
| 20260510123006 | 52 | 148 | 0.0 | 0.0 | 0.00 | 0.00 | 0.00 | 81 | 1016.5 |
| 20260510122506 | 52 | 170 | 0.0 | 0.0 | 0.00 | 0.00 | 0.00 | 80 | 1016.5 |
| 20260510122006 | 52 | 170 | 0.0 | 0.0 | 0.00 | 0.00 | 0.00 | 80 | 1016.5 |
| 20260510121506 | 52 | 170 | 0.0 | 0.0 | 0.00 | 0.00 | 0.00 | 80 | 1016.5 |
| 20260510120505 | 52 | 170 | 0.0 | 0.0 | 0.00 | 0.00 | 0.00 | 79 | 1016.5 |
| 20260510120005 | 53 | 170 | 0.0 | 0.0 | 0.00 | 0.00 | 0.00 | 79 | 1016.5 |
| 20260510115505 | 53 | 170 | 0.0 | 0.0 | 0.00 | 0.00 | 0.00 | 79 | 1016.5 |
| 20260510115006 | 53 | 170 | 0.0 | 0.0 | 0.00 | 0.00 | 0.00 | 79 | 1016.5 |
| 20260510114006 | 53 | 170 | 0.0 | 0.0 | 0.00 | 0.00 | 0.00 | 78 | 1016.5 |
| 20260510113506 | 53 | 170 | 0.0 | 0.0 | 0.00 | 0.00 | 0.00 | 78 | 1016.5 |
| 20260510113005 | 53 | 170 | 0.0 | 0.0 | 0.00 | 0.00 | 0.00 | 78 | 1016.5 |
| 20260510112506 | 54 | 170 | 0.0 | 0.0 | 0.00 | 0.00 | 0.00 | 77 | 1016.5 |
| 20260510112006 | 54 | 170 | 0.0 | 0.0 | 0.00 | 0.00 | 0.00 | 77 | 1016.5 |
| 20260510111506 | 54 | 148 | 0.0 | 0.0 | 0.00 | 0.00 | 0.00 | 76 | 1017.5 |
| 20260510111005 | 54 | 148 | 0.0 | 0.0 | 0.00 | 0.00 | 0.00 | 76 | 1017.5 |
| 20260510110506 | 54 | 58 | 0.0 | 0.0 | 0.00 | 0.00 | 0.00 | 76 | 1017.5 |
| 20260510105505 | 55 | 282 | 0.0 | 0.0 | 0.00 | 0.00 | 0.00 | 74 | 1016.5 |
| 20260510105006 | 55 | 282 | 0.0 | 0.0 | 0.00 | 0.00 | 0.00 | 74 | 1016.5 |
| 20260510104505 | 55 | 282 | 0.0 | 0.0 | 0.00 | 0.00 | 0.00 | 74 | 1016.5 |
| 20260510104006 | 55 | 282 | 0.0 | 0.0 | 0.00 | 0.00 | 0.00 | 74 | 1016.5 |
| 20260510103505 | 56 | 282 | 0.0 | 0.0 | 0.00 | 0.00 | 0.00 | 73 | 1016.5 |
| 20260510103006 | 56 | 282 | 0.0 | 0.0 | 0.00 | 0.00 | 0.00 | 73 | 1015.5 |
| 20260510102005 | 56 | 35 | 0.0 | 0.0 | 0.00 | 0.00 | 0.00 | 71 | 1015.5 |
| 20260510101005 | 57 | 35 | 0.0 | 0.0 | 0.00 | 0.00 | 0.00 | 70 | 1014.5 |
| 20260510100006 | 57 | 35 | 0.0 | 0.0 | 0.00 | 0.00 | 0.00 | 70 | 1014.5 |
| 20260510095506 | 57 | 35 | 0.0 | 0.0 | 0.00 | 0.00 | 0.00 | 69 | 1014.5 |
| 20260510095006 | 57 | 170 | 0.0 | 0.0 | 0.00 | 0.00 | 0.00 | 69 | 1014.5 |
| 20260510094505 | 57 | 170 | 0.0 | 0.0 | 0.00 | 0.00 | 0.00 | 69 | 1014.5 |
| 20260510094005 | 57 | 170 | 0.0 | 0.0 | 0.00 | 0.00 | 0.00 | 68 | 1014.5 |
| 20260510093505 | 58 | 170 | 0.0 | 0.0 | 0.00 | 0.00 | 0.00 | 68 | 1014.5 |
| 20260510093006 | 58 | 170 | 0.0 | 0.0 | 0.00 | 0.00 | 0.00 | 68 | 1014.5 |
| 20260510092505 | 58 | 170 | 0.0 | 0.0 | 0.00 | 0.00 | 0.00 | 67 | 1014.5 |
| 20260510092007 | 58 | 282 | 0.0 | 0.0 | 0.00 | 0.00 | 0.00 | 67 | 1014.5 |
| 20260510091005 | 58 | 282 | 0.0 | 0.0 | 0.00 | 0.00 | 0.00 | 66 | 1014.5 |
| 20260510090506 | 58 | 170 | 0.0 | 0.0 | 0.00 | 0.00 | 0.00 | 66 | 1014.5 |
| 20260510090005 | 58 | 170 | 0.0 | 0.0 | 0.00 | 0.00 | 0.00 | 66 | 1014.5 |
| 20260510085506 | 58 | 260 | 0.0 | 0.0 | 0.00 | 0.00 | 0.00 | 65 | 1014.5 |
| 20260510085005 | 59 | 305 | 0.0 | 0.0 | 0.00 | 0.00 | 0.00 | 65 | 1014.5 |
| 20260510084505 | 59 | 305 | 0.0 | 0.0 | 0.00 | 0.00 | 0.00 | 65 | 1014.5 |
| 20260510084005 | 59 | 305 | 0.0 | 0.0 | 0.00 | 0.00 | 0.00 | 64 | 1014.5 |
| 20260510083506 | 59 | 305 | 0.0 | 0.0 | 0.00 | 0.00 | 0.00 | 63 | 1014.5 |
| 20260510083005 | 59 | 305 | 0.0 | 0.0 | 0.00 | 0.00 | 0.00 | 63 | 1013.5 |
| 20260510082506 | 59 | 305 | 0.0 | 0.0 | 0.00 | 0.00 | 0.00 | 63 | 1013.5 |
| 20260510082006 | 59 | 305 | 0.0 | 0.0 | 0.00 | 0.00 | 0.00 | 62 | 1013.5 |
| 20260510081505 | 59 | 305 | 0.0 | 0.0 | 0.00 | 0.00 | 0.00 | 62 | 1014.5 |
| 20260510080505 | 60 | 305 | 0.0 | 0.0 | 0.00 | 0.00 | 0.00 | 61 | 1014.5 |
| 20260510080005 | 60 | 305 | 0.0 | 0.0 | 0.00 | 0.00 | 0.00 | 60 | 1014.5 |
| 20260510075505 | 60 | 305 | 0.0 | 0.0 | 0.00 | 0.00 | 0.00 | 60 | 1014.5 |
| 20260510075005 | 60 | 305 | 0.0 | 0.0 | 0.00 | 0.00 | 0.00 | 59 | 1014.5 |
| 20260510074505 | 60 | 305 | 0.0 | 0.0 | 0.00 | 0.00 | 0.00 | 59 | 1014.5 |
| 20260510073506 | 61 | 305 | 0.0 | 0.0 | 0.00 | 0.00 | 0.00 | 58 | 1014.5 |
| 20260510072505 | 61 | 305 | 0.0 | 0.0 | 0.00 | 0.00 | 0.00 | 57 | 1014.5 |
| 20260510071505 | 61 | 305 | 0.0 | 0.0 | 0.00 | 0.00 | 0.00 | 56 | 1014.5 |
| 20260510071005 | 61 | 305 | 0.0 | 0.0 | 0.00 | 0.00 | 0.00 | 56 | 1014.5 |
| 20260510070005 | 61 | 305 | 0.0 | 0.0 | 0.00 | 0.00 | 0.00 | 56 | 1014.5 |
| 20260510065505 | 62 | 305 | 0.0 | 0.0 | 0.00 | 0.00 | 0.00 | 55 | 1014.5 |
| 20260510065006 | 62 | 305 | 0.0 | 0.0 | 0.00 | 0.00 | 0.00 | 55 | 1014.5 |
| 20260510064006 | 62 | 305 | 0.0 | 0.0 | 0.00 | 0.00 | 0.00 | 55 | 1014.5 |
| 20260510063005 | 62 | 305 | 0.0 | 0.0 | 0.00 | 0.00 | 0.00 | 55 | 1013.5 |
| 20260510062505 | 62 | 305 | 0.0 | 0.0 | 0.00 | 0.00 | 0.00 | 55 | 1013.5 |
| 20260510061505 | 63 | 35 | 0.0 | 0.0 | 0.00 | 0.00 | 0.00 | 54 | 1014.5 |
| 20260510061006 | 63 | 215 | 0.0 | 0.0 | 0.00 | 0.00 | 0.00 | 54 | 1014.5 |
| 20260510060505 | 63 | 253 | 0.0 | 0.0 | 0.00 | 0.00 | 0.00 | 54 | 1014.5 |
| 20260510060006 | 63 | 150 | 0.0 | 0.0 | 0.00 | 0.00 | 0.00 | 54 | 1014.5 |
| 20260510055505 | 63 | 305 | 0.0 | 0.0 | 0.00 | 0.00 | 0.00 | 53 | 1014.5 |
| 20260510055005 | 64 | 246 | 0.0 | 0.0 | 0.00 | 0.00 | 0.00 | 53 | 1014.5 |
| 20260510054505 | 64 | 327 | 0.0 | 0.0 | 0.00 | 0.00 | 0.00 | 53 | 1014.5 |
| 20260510053505 | 64 | 125 | 0.0 | 0.0 | 0.00 | 0.00 | 0.00 | 52 | 1014.5 |
| 20260510052505 | 64 | 238 | 0.0 | 0.0 | 0.00 | 0.00 | 0.00 | 52 | 1014.5 |
| 20260510052005 | 65 | 238 | 0.0 | 0.0 | 0.00 | 0.00 | 0.00 | 51 | 1014.5 |
| 20260510051504 | 65 | 276 | 0.0 | 2.0 | 0.00 | 0.00 | 0.00 | 51 | 1014.5 |
| 20260510051004 | 65 | 260 | 0.0 | 2.0 | 0.00 | 0.00 | 0.00 | 51 | 1014.5 |
| 20260510050005 | 65 | 271 | 0.0 | 0.0 | 0.00 | 0.00 | 0.00 | 51 | 1014.5 |
| 20260510045505 | 65 | 238 | 0.0 | 0.0 | 0.00 | 0.00 | 0.00 | 50 | 1014.5 |
| 20260510045006 | 65 | 238 | 0.0 | 5.0 | 0.00 | 0.00 | 0.00 | 50 | 1014.5 |
| 20260510044506 | 65 | 284 | 1.0 | 5.0 | 0.00 | 0.00 | 0.00 | 50 | 1014.5 |
| 20260510044005 | 65 | 282 | 0.0 | 3.0 | 0.00 | 0.00 | 0.00 | 49 | 1014.5 |
| 20260510043004 | 65 | 260 | 0.0 | 0.0 | 0.00 | 0.00 | 0.00 | 49 | 1014.5 |
| 20260510042505 | 65 | 295 | 0.0 | 0.0 | 0.00 | 0.00 | 0.00 | 49 | 1014.5 |
| 20260510042005 | 65 | 292 | 0.0 | 0.0 | 0.00 | 0.00 | 0.00 | 48 | 1014.5 |
| 20260510041505 | 65 | 282 | 0.0 | 0.0 | 0.00 | 0.00 | 0.00 | 48 | 1014.5 |
| 20260510041005 | 66 | 282 | 0.0 | 0.0 | 0.00 | 0.00 | 0.00 | 48 | 1014.5 |
| 20260510040505 | 66 | 282 | 0.0 | 0.0 | 0.00 | 0.00 | 0.00 | 48 | 1014.5 |
| 20260510040005 | 66 | 282 | 0.0 | 0.0 | 0.00 | 0.00 | 0.00 | 47 | 1014.5 |
| 20260510035504 | 66 | 282 | 0.0 | 0.0 | 0.00 | 0.00 | 0.00 | 47 | 1014.5 |
| 20260510034505 | 67 | 282 | 0.0 | 0.0 | 0.00 | 0.00 | 0.00 | 46 | 1014.5 |
| 20260510034005 | 67 | 147 | 0.0 | 0.0 | 0.00 | 0.00 | 0.00 | 46 | 1014.5 |
| 20260510033505 | 67 | 305 | 0.0 | 0.0 | 0.00 | 0.00 | 0.00 | 46 | 1014.5 |
| 20260510033005 | 67 | 282 | 0.0 | 0.0 | 0.00 | 0.00 | 0.00 | 46 | 1014.5 |
| 20260510032505 | 67 | 282 | 0.0 | 0.0 | 0.00 | 0.00 | 0.00 | 45 | 1014.5 |
| 20260510031504 | 68 | 260 | 0.0 | 0.0 | 0.00 | 0.00 | 0.00 | 45 | 1014.5 |
| 20260510031004 | 68 | 260 | 0.0 | 0.0 | 0.00 | 0.00 | 0.00 | 44 | 1014.5 |
| 20260510030505 | 69 | 260 | 0.0 | 0.0 | 0.00 | 0.00 | 0.00 | 44 | 1014.5 |
| 20260510030005 | 69 | 260 | 0.0 | 0.0 | 0.00 | 0.00 | 0.00 | 43 | 1013.5 |
| 20260510025004 | 70 | 260 | 0.0 | 0.0 | 0.00 | 0.00 | 0.00 | 43 | 1013.5 |
| 20260510024505 | 70 | 260 | 0.0 | 0.0 | 0.00 | 0.00 | 0.00 | 42 | 1014.5 |
| 20260510024005 | 70 | 260 | 0.0 | 0.0 | 0.00 | 0.00 | 0.00 | 42 | 1014.5 |
| 20260510023504 | 70 | 282 | 0.0 | 0.0 | 0.00 | 0.00 | 0.00 | 42 | 1014.5 |
| 20260510023004 | 70 | 282 | 0.0 | 0.0 | 0.00 | 0.00 | 0.00 | 41 | 1014.5 |
| 20260510022505 | 71 | 282 | 0.0 | 0.0 | 0.00 | 0.00 | 0.00 | 41 | 1014.5 |
| 20260510022005 | 71 | 282 | 0.0 | 0.0 | 0.00 | 0.00 | 0.00 | 41 | 1014.5 |
| 20260510021505 | 71 | 282 | 0.0 | 0.0 | 0.00 | 0.00 | 0.00 | 40 | 1014.5 |
| 20260510021004 | 71 | 238 | 0.0 | 0.0 | 0.00 | 0.00 | 0.00 | 40 | 1014.5 |
| 20260510020504 | 72 | 238 | 0.0 | 0.0 | 0.00 | 0.00 | 0.00 | 39 | 1014.5 |
| 20260510020005 | 72 | 238 | 0.0 | 0.0 | 0.00 | 0.00 | 0.00 | 39 | 1014.5 |
| 20260510015505 | 72 | 238 | 0.0 | 0.0 | 0.00 | 0.00 | 0.00 | 39 | 1014.5 |
| 20260510015004 | 72 | 267 | 0.0 | 0.0 | 0.00 | 0.00 | 0.00 | 38 | 1014.5 |
| 20260510014505 | 73 | 305 | 0.0 | 0.0 | 0.00 | 0.00 | 0.00 | 38 | 1014.5 |
| 20260510014005 | 73 | 305 | 0.0 | 0.0 | 0.00 | 0.00 | 0.00 | 38 | 1014.5 |
| 20260510013005 | 73 | 215 | 0.0 | 0.0 | 0.00 | 0.00 | 0.00 | 38 | 1014.5 |
| 20260510012005 | 73 | 215 | 0.0 | 0.0 | 0.00 | 0.00 | 0.00 | 39 | 1014.5 |
| 20260510011505 | 74 | 305 | 0.0 | 0.0 | 0.00 | 0.00 | 0.00 | 39 | 1014.5 |
| 20260510010504 | 74 | 35 | 0.0 | 0.0 | 0.00 | 0.00 | 0.00 | 39 | 1014.5 |
| 20260510005005 | 74 | 192 | 0.0 | 0.0 | 0.00 | 0.00 | 0.00 | 41 | 1014.5 |
| 20260510004505 | 75 | 35 | 0.0 | 0.0 | 0.00 | 0.00 | 0.00 | 41 | 1014.5 |
| 20260510004004 | 75 | 35 | 0.0 | 0.0 | 0.00 | 0.00 | 0.00 | 41 | 1014.5 |
| 20260510003004 | 74 | 37 | 0.0 | 0.0 | 0.00 | 0.00 | 0.00 | 41 | 1014.5 |
| 20260510002504 | 74 | 92 | 0.0 | 0.0 | 0.00 | 0.00 | 0.00 | 41 | 1014.5 |
| 20260510002005 | 75 | 148 | 0.0 | 0.0 | 0.00 | 0.00 | 0.00 | 41 | 1014.5 |
| 20260510001005 | 75 | 193 | 0.0 | 0.0 | 0.00 | 0.00 | 0.00 | 40 | 1014.5 |
| 20260510000504 | 75 | 148 | 0.0 | 0.0 | 0.00 | 0.00 | 0.00 | 40 | 1014.5 |
| 20260509235504 | 76 | 35 | 0.0 | 0.0 | 0.00 | 0.00 | 0.00 | 41 | 1014.5 |
| 20260509234504 | 76 | 125 | 0.0 | 0.0 | 0.00 | 0.00 | 0.00 | 41 | 1014.5 |
| 20260509233505 | 76 | 34 | 0.0 | 0.0 | 0.00 | 0.00 | 0.00 | 41 | 1014.5 |
| 20260509233004 | 76 | 35 | 0.0 | 0.0 | 0.00 | 0.00 | 0.00 | 41 | 1014.5 |
| 20260509232504 | 76 | 63 | 0.0 | 0.0 | 0.00 | 0.00 | 0.00 | 41 | 1014.5 |
| 20260509232005 | 76 | 125 | 0.0 | 0.0 | 0.00 | 0.00 | 0.00 | 41 | 1014.5 |
| 20260509231504 | 77 | 243 | 0.0 | 0.0 | 0.00 | 0.00 | 0.00 | 42 | 1014.5 |
| 20260509231004 | 76 | 73 | 0.0 | 0.0 | 0.00 | 0.00 | 0.00 | 42 | 1014.5 |
| 20260509230504 | 76 | 35 | 0.0 | 0.0 | 0.00 | 0.00 | 0.00 | 42 | 1014.5 |
| 20260509230005 | 76 | 83 | 0.0 | 0.0 | 0.00 | 0.00 | 0.00 | 42 | 1015.5 |
| 20260509225504 | 76 | 260 | 0.0 | 0.0 | 0.00 | 0.00 | 0.00 | 41 | 1015.5 |
| 20260509225004 | 76 | 282 | 0.0 | 5.0 | 0.00 | 0.00 | 0.00 | 41 | 1015.5 |
| 20260509224504 | 76 | 84 | 0.0 | 8.0 | 0.00 | 0.00 | 0.00 | 42 | 1016.5 |
| 20260509224005 | 76 | 35 | 3.0 | 8.0 | 0.00 | 0.00 | 0.00 | 42 | 1016.5 |
| 20260509223504 | 76 | 353 | 3.0 | 8.0 | 0.00 | 0.00 | 0.00 | 42 | 1016.5 |
| 20260509223005 | 76 | 72 | 0.0 | 10.0 | 0.00 | 0.00 | 0.00 | 44 | 1016.5 |
| 20260509221505 | 75 | 212 | 1.0 | 6.0 | 0.00 | 0.00 | 0.00 | 44 | 1016.5 |
| 20260509221004 | 75 | 287 | 0.0 | 3.0 | 0.00 | 0.00 | 0.00 | 45 | 1016.5 |
| 20260509220004 | 74 | 238 | 2.0 | 8.0 | 0.00 | 0.00 | 0.00 | 46 | 1016.5 |